Tracking 19792 objects as of 16-Jul-2019
HD Live streaming from Space Station
objects crossing your sky now

COSMOS 342

Track COSMOS 342 now!
10-day predictions
COSMOS 342 is classified as:


NORAD ID: 4389
Int'l Code: 1970-036G
Perigee: 1,317.0 km
Apogee: 1,475.2 km
Inclination: 74.0 °
Period: 113.5 minutes
Semi major axis: 7767 km
RCS: 0.743 m2 (medium)
Launch date: April 25, 1970
Source: Commonwealth of Independent States (former USSR) (CIS)
Launch site: PLESETSK MISSILE AND SPACE COMPLEX (PKMTR)
aabbcc
Your satellite tracking list
Your tracking list is empty




NASA's NSSDC Master Catalog

Two Line Element Set (TLE):
1  4389U 70036G   19196.47696240 +.00000012 +00000-0 +14898-3 0  9990
2  4389 074.0276 248.0149 0101797 225.7914 238.3506 12.68281940278516
Source of the keplerian elements: AFSPC